Location: Antichan
(42.9728°N, 0.6667°E)
Time: 10:20:02
(UTC+00:00)

CZ-2C R/B - Pass Details

Date: 15 August 2020
Orbit: 639 x 705 km, 98.4° (Epoch: 18 September)

Event Time Altitude Azimuth Distance (km) Brightness Sun altitude
Rises 20:30:35 0° 10° (N) 3,024 7.5 -15.6°
Reaches altitude 10° 20:32:51 10° 7° (N) 2,096 6.7 -15.9°
Maximum altitude 20:37:22 64° 287° (WNW) 727 4.1 -16.6°
Drops below altitude 10° 20:41:46 10° 206° (SSW) 2,044 6.1 -17.2°
Sets 20:43:58 0° 203° (SSW) 2,943 6.9 -17.5°
